Change the Weather History Date:

Monday, November 14, 2011

  Actual Average Record
Temperature  
Mean Temperature 56 °F -  
Max Temperature 66 °F 44 °F 66 °F (2011)
Min Temperature 46 °F 31 °F 10 °F (1996)
Degree Days  
Heating Degree Days 9    
Growing Degree Days 6 (Base 50)    
Moisture  
Dew Point 45 °F    
Average Humidity 68    
Maximum Humidity 82    
Minimum Humidity 49    
Precipitation  
Precipitation 0.00 in - - ()
Sea Level Pressure  
Sea Level Pressure 30.04 in    
Wind  
Wind Speed 16 mph (WSW)    
Max Wind Speed 26 mph    
Max Gust Speed 33 mph    
Visibility 10 miles    
Events      
Averages and records for this station are not official NWS values.
T = Trace of Precipitation, MM = Missing Value Source: NWS Daily Summary

Daily Weather History Graph

Daily Weather History Graph

Search for Another Location

Airport or City:

Trip Planner

Search our weather history database for the weather conditions in past years. The results will help you decide how hot, cold, wet, or windy it might be!

Date:

Astronomy

Nov. 14, 2011 Rise Set
Actual Time 6:58 AM EST 5:08 PM EST
Civil Twilight 6:30 AM EST 5:36 PM EST
Nautical Twilight 5:58 AM EST 6:08 PM EST
Astronomical Twilight 5:27 AM EST 6:39 PM EST
Moon 8:14 PM EST (11/14) 10:14 AM EST (11/14)
Length of Visible Light 11h 05m
Length of Day
10h 09m
Waning Gibbous, 87% of the Moon is Illuminated
Nov 14
Waning Gibbous
Nov 18
Last Quarter
Nov 25
New
Dec 2
First Quarter
Dec 10
Full

Hourly Weather History & Observations

Time (EST) Temp. Windchill Dew Point Humidity Pressure Visibility Wind Dir Wind Speed Gust Speed Precip Events Conditions
12:15 AM 46.4 °F 41.1 °F 35.6 °F 66% 30.08 in 10.0 mi SW 11.5 mph - N/A   Clear
12:35 AM 46.4 °F 40.7 °F 37.4 °F 71% 30.08 in 10.0 mi WSW 12.7 mph 16.1 mph N/A   Clear
12:55 AM 46.4 °F 40.7 °F 37.4 °F 71% 30.08 in 10.0 mi WSW 12.7 mph - N/A   Clear
1:15 AM 46.4 °F 40.7 °F 37.4 °F 71% 30.08 in 10.0 mi WSW 12.7 mph - N/A   Clear
1:35 AM 46.4 °F 40.1 °F 37.4 °F 71% 30.07 in 10.0 mi WSW 15.0 mph - N/A   Clear
1:55 AM 46.4 °F 40.1 °F 39.2 °F 76% 30.07 in 10.0 mi WSW 15.0 mph 20.7 mph N/A   Clear
2:15 AM 46.4 °F 39.5 °F 39.2 °F 76% 30.06 in 10.0 mi WSW 17.3 mph - N/A   Clear
2:35 AM 48.2 °F - 39.2 °F 71% 30.07 in 10.0 mi WSW 17.3 mph 26.5 mph N/A   Clear
2:55 AM 48.2 °F - 39.2 °F 71% 30.06 in 10.0 mi WSW 18.4 mph 23.0 mph N/A   Clear
3:15 AM 48.2 °F - 41.0 °F 76% 30.06 in 10.0 mi WSW 19.6 mph 26.5 mph N/A   Clear
3:35 AM 48.2 °F - 41.0 °F 76% 30.05 in 10.0 mi WSW 17.3 mph - N/A   Clear
3:55 AM 48.2 °F - 42.8 °F 82% 30.05 in 10.0 mi WSW 15.0 mph 21.9 mph N/A   Clear
4:15 AM 48.2 °F - 42.8 °F 82% 30.06 in 10.0 mi WSW 16.1 mph 23.0 mph N/A   Clear
4:35 AM 48.2 °F - 42.8 °F 82% 30.05 in 10.0 mi WSW 17.3 mph - N/A   Clear
4:55 AM 50.0 °F - 42.8 °F 76% 30.06 in 10.0 mi WSW 18.4 mph - N/A   Clear
5:15 AM 48.2 °F - 42.8 °F 82% 30.06 in 10.0 mi WSW 17.3 mph 23.0 mph N/A   Clear
5:35 AM 50.0 °F - 44.6 °F 82% 30.06 in 10.0 mi WSW 17.3 mph 21.9 mph N/A   Clear
5:55 AM 50.0 °F - 44.6 °F 82% 30.06 in 10.0 mi WSW 17.3 mph - N/A   Clear
6:15 AM 50.0 °F - 44.6 °F 82% 30.06 in 10.0 mi WSW 16.1 mph 25.3 mph N/A   Clear
6:35 AM 50.0 °F - 44.6 °F 82% 30.06 in 10.0 mi WSW 19.6 mph - N/A   Scattered Clouds
7:15 AM 51.8 °F - 46.4 °F 82% 30.07 in 10.0 mi WSW 18.4 mph - N/A   Clear
7:35 AM 51.8 °F - 46.4 °F 82% 30.07 in 10.0 mi WSW 17.3 mph 24.2 mph N/A   Clear
7:55 AM 51.8 °F - 46.4 °F 82% 30.08 in 10.0 mi WSW 17.3 mph 23.0 mph N/A   Clear
8:35 AM 53.6 °F - 46.4 °F 77% 30.08 in 10.0 mi WSW 20.7 mph 24.2 mph N/A   Clear
8:55 AM 53.6 °F - 46.4 °F 77% 30.08 in 10.0 mi WSW 17.3 mph 25.3 mph N/A   Clear
9:15 AM 53.6 °F - 46.4 °F 77% 30.08 in 10.0 mi West 15.0 mph 21.9 mph N/A   Clear
9:35 AM 55.4 °F - 46.4 °F 72% 30.08 in 10.0 mi WSW 19.6 mph 24.2 mph N/A   Clear
9:55 AM 55.4 °F - 48.2 °F 77% 30.08 in 10.0 mi WSW 17.3 mph 23.0 mph N/A   Clear
10:15 AM 57.2 °F - 48.2 °F 72% 30.08 in 10.0 mi WSW 16.1 mph 23.0 mph N/A   Clear
10:35 AM 59.0 °F - 48.2 °F 67% 30.08 in 10.0 mi WSW 19.6 mph 25.3 mph N/A   Clear
10:55 AM 60.8 °F - 48.2 °F 63% 30.07 in 10.0 mi West 18.4 mph 26.5 mph N/A   Clear
11:35 AM 60.8 °F - 48.2 °F 63% 30.06 in 10.0 mi WSW 15.0 mph 25.3 mph N/A   Clear
11:55 AM 62.6 °F - 48.2 °F 59% 30.05 in 10.0 mi WSW 16.1 mph 24.2 mph N/A   Clear
12:15 PM 62.6 °F - 48.2 °F 59% 30.04 in 10.0 mi WSW 17.3 mph 23.0 mph N/A   Clear
12:35 PM 62.6 °F - 48.2 °F 59% 30.03 in 10.0 mi WSW 18.4 mph 26.5 mph N/A   Clear
12:55 PM 64.4 °F - 48.2 °F 56% 30.03 in 10.0 mi WSW 17.3 mph 23.0 mph N/A   Clear
1:15 PM 64.4 °F - 46.4 °F 52% 30.02 in 10.0 mi WSW 16.1 mph 25.3 mph N/A   Clear
1:35 PM 64.4 °F - 48.2 °F 56% 30.02 in 10.0 mi WSW 15.0 mph 23.0 mph N/A   Clear
2:15 PM 66.2 °F - 46.4 °F 49% 30.01 in 10.0 mi WSW 15.0 mph 23.0 mph N/A   Clear
2:35 PM 66.2 °F - 46.4 °F 49% 30.01 in 10.0 mi SW 13.8 mph 20.7 mph N/A   Scattered Clouds
2:55 PM 66.2 °F - 46.4 °F 49% 30.00 in 10.0 mi SW 13.8 mph 19.6 mph N/A   Scattered Clouds
2:56 PM 66.2 °F - 46.4 °F 49% 30.00 in 10.0 mi SW 13.8 mph 19.6 mph N/A   Scattered Clouds
3:15 PM 66.2 °F - 46.4 °F 49% 30.00 in 10.0 mi WSW 17.3 mph 24.2 mph N/A   Scattered Clouds
3:35 PM 64.4 °F - 46.4 °F 52% 30.01 in 10.0 mi SW 17.3 mph 24.2 mph N/A   Clear
3:55 PM 64.4 °F - 46.4 °F 52% 30.01 in 10.0 mi SW 17.3 mph 24.2 mph N/A   Scattered Clouds
4:15 PM 64.4 °F - 46.4 °F 52% 30.01 in 10.0 mi WSW 16.1 mph 23.0 mph N/A   Mostly Cloudy
4:35 PM 62.6 °F - 46.4 °F 55% 30.00 in 10.0 mi WSW 16.1 mph 24.2 mph N/A   Scattered Clouds
4:55 PM 62.6 °F - 46.4 °F 55% 30.00 in 10.0 mi WSW 16.1 mph 24.2 mph N/A   Clear
5:15 PM 62.6 °F - 46.4 °F 55% 30.00 in 10.0 mi WSW 20.7 mph 27.6 mph N/A   Clear
5:35 PM 60.8 °F - 48.2 °F 63% 30.00 in 10.0 mi WSW 18.4 mph 25.3 mph N/A   Clear
5:55 PM 60.8 °F - 48.2 °F 63% 30.01 in 10.0 mi WSW 17.3 mph 23.0 mph N/A   Clear
6:15 PM 60.8 °F - 48.2 °F 63% 30.01 in 10.0 mi WSW 17.3 mph 25.3 mph N/A   Scattered Clouds
6:35 PM 60.8 °F - 48.2 °F 63% 30.01 in 10.0 mi WSW 20.7 mph 28.8 mph N/A   Scattered Clouds
6:55 PM 59.0 °F - 48.2 °F 67% 30.00 in 10.0 mi WSW 17.3 mph 29.9 mph N/A   Scattered Clouds
7:15 PM 59.0 °F - 48.2 °F 67% 29.99 in 10.0 mi SW 21.9 mph 28.8 mph N/A   Clear
7:35 PM 59.0 °F - 46.4 °F 63% 29.99 in 10.0 mi WSW 19.6 mph 29.9 mph N/A   Clear
7:55 PM 57.2 °F - 48.2 °F 72% 29.99 in 10.0 mi WSW 24.2 mph 33.4 mph N/A   Clear
8:15 PM 57.2 °F - 48.2 °F 72% 29.99 in 10.0 mi WSW 26.5 mph 32.2 mph N/A   Clear
8:35 PM 57.2 °F - 48.2 °F 72% 29.98 in 10.0 mi WSW 21.9 mph 31.1 mph N/A   Clear
8:55 PM 57.2 °F - 48.2 °F 72% 29.98 in 10.0 mi WSW 19.6 mph 27.6 mph N/A   Clear
9:15 PM 57.2 °F - 48.2 °F 72% 29.98 in 10.0 mi WSW 24.2 mph 29.9 mph N/A   Clear
9:35 PM 57.2 °F - 48.2 °F 72% 29.98 in 10.0 mi WSW 17.3 mph 26.5 mph N/A   Scattered Clouds
9:55 PM 57.2 °F - 48.2 °F 72% 29.99 in 10.0 mi West 18.4 mph 24.2 mph N/A   Clear
10:15 PM 57.2 °F - 50.0 °F 77% 29.99 in 10.0 mi West 19.6 mph 26.5 mph N/A   Mostly Cloudy
10:35 PM 57.2 °F - 50.0 °F 77% 30.00 in 10.0 mi West 20.7 mph 29.9 mph N/A   Scattered Clouds
10:55 PM 57.2 °F - 50.0 °F 77% 29.99 in 10.0 mi West 23.0 mph 27.6 mph N/A   Mostly Cloudy
11:15 PM 57.2 °F - 51.8 °F 82% 29.99 in 10.0 mi West 18.4 mph 27.6 mph N/A   Overcast
11:35 PM 57.2 °F - 51.8 °F 82% 30.00 in 10.0 mi WSW 19.6 mph 25.3 mph N/A   Overcast
11:55 PM 57.2 °F - 51.8 °F 82% 29.99 in 10.0 mi WSW 18.4 mph 25.3 mph N/A   Overcast